STARLINK-1267, 45384

Orbit data source: Space-Track

STARLINK-1267, 45384 is a payload satellite owned by SpaceX/Seattle (US) in LEO that was launched on Wed, 18 Mar 2020 UTC via an FALCON 9 launch vehicle from the Air Force Eastern Test Range (AFETR). Payload-class satellites include a variety of spacecraft equipped with specific instruments for various scientific and technological missions. These include communications satellites like Starlink; space stations such as the ISS; scientific satellites like the Hubble; Earth observation satellites from companies like Planet Labs, Umbra, and HawkEye 360; GPS; miniature CubeSats for education and research; and military/defense satellites.

Loading next visibility...
Identifier
45384, 2020-019AA
Orbit
LEO
Country
Flag of USUS
Related business
Manufacturer
SpaceX/Seattle
Mission
Operational Commercial Communications
Bus & Motor
STARLINK, Unknown motor
Mass
260 kg wet, ~248 kg dry
Launch date (UTC)
2020-03-18 (5 years ago)
Launch vehicle
FALCON 9
Launch site
Air Force Eastern Test Range (AFETR)
Object type
Payload
Rocket body
Debris
Shape & HBR
Box + 1 Pan, 4.4 m
Radar Cross Section
13.562 m², Large (>1 m²)

Expand to show TLE details & history
Last TLE update: 2 days ago

TLE from 2 days ago
0 STARLINK-1267
1 45384U 20019AA  25241.46121150  .00029437  00000-0  19941-2 0  9991
2 45384  53.0567 290.2266 0001983  89.8211 270.3005 15.06263959301028
Epoch: 2025-08-29T11:04Z
TLE epoch observation values (Epoch: 2025-08-29T11:04:08.673Z)
Latitude
-0.00004°
Longitude
146.2809°
Altitude
548.501 km
Speed
7.589 km/s
True Right ascension
19h 20m 54s
True Declination
0° 00' 00"
Sunlit
Object was in full shadow at epoch
Visualization orbit readout
Latitude
Unknown
Longitude
Unknown
Altitude
Unknown
Speed
Unknown
Apparent Right ascension
Unknown
Apparent Declination
Unknown
Sunlit
N/A
Visualization observer readout
Local Sidereal Time
18:38:15
Azimuth
Unknown
Elevation
Unknown
Doppler factor
Unknown
Orbital elements
Apogee altitude
549.272 km
Perigee altitude
546.525 km
Semi-major axis
6,926.036 km
Eccentricity
0.0002
Inclination
53.0567°
RAAN
290.2266°
Arg. of periapsis
89.8211°
True anomaly
270.27778°
Mean anomaly
270.3005°
Eccentric anomaly
270.28914°
Mean motion
3.76544 °/min
Orbital period
95.61 mins
BSTAR
0.0019941
Loading maneuver chart data...
Computing Atmospheric mass density...
Loading historical data...
Loading historical data...
Loading historical data...
Loading historical data...
Loading historical data...
Loading historical data...
Loading historical data...

Documentation

Showing up to 5 results
|